Home   Weather   Debrecen   Past weeks

Flag for Hungary Past Weather in Debrecen, Hungary — Yesterday and Last 2 Weeks

Now
68 °F

Partly sunny.


Feels Like: 68 °F
Forecast: 57 / 78 °F
Wind: N/A

Location: Debrecen Airport

Current Time: Jul 27, 2017 at 10:53:16 am

Latest Report: Jul 27, 2017 at 9:45 am


Visibility: N/A

Pressure: 29.77 "Hg

Humidity: 73%

Dew Point: 59 °F

Location of DebrecenLocation

Past Weather in Debrecen — Graph

°F

Debrecen Temperature Yesterday

Maximum temperature yesterday: 75 °F (at 3:15 pm)
Minimum temperature yesterday: 52 °F (at 5:15 am)
Average temperature yesterday: 67 °F

High & Low Weather Summary for the Past Weeks

 TemperatureHumidityPressure
High93 °F (Jul 21, 3:15 pm)94% (Jul 24, 6:15 am)30.18 "Hg (Jul 24, 6:15 am)
Low52 °F (Jul 14, 5:15 am)25% (Jul 19, 5:45 pm)29.56 "Hg (Jul 25, 12:15 pm)
Average74 °F56%29.94 "Hg
* Reported Jul 12 9:15 am — Jul 27 9:15 am, Debrecen. Weather by CustomWeather, © 2017

Note: Actual official high and low records may vary slightly from our data, if they occured in-between our weather recording intervals... More about our weather records

Advertising

Debrecen Weather History for the Previous 24 Hours

Scroll right to see more
 ConditionsComfort  
Time TempWeatherWind HumidityBarometerVisibility
9:15 am
Thu, Jul 27
70 °FPartly sunny.N/A60%29.77 "HgN/A
8:45 am70 °FSunny.N/A64%29.77 "Hg10 mi
8:15 am68 °FSunny.N/A64%29.77 "Hg10 mi
7:45 am64 °FSunny.N/A78%29.77 "Hg10 mi
7:15 am63 °FPartly sunny.N/A88%29.77 "HgN/A
6:45 am61 °FSunny.N/A88%29.77 "Hg10 mi
6:15 am63 °FSunny.N/A83%29.74 "Hg10 mi
5:45 am61 °FSunny.N/A88%29.74 "Hg10 mi
5:15 am61 °FSunny.N/A88%29.74 "Hg10 mi
4:45 am61 °FClear.N/A88%29.74 "Hg10 mi
12:45 am63 °FClear.N/A77%29.74 "Hg10 mi
12:15 am61 °FClear.N/A83%29.74 "Hg10 mi
11:45 pm
Wed, Jul 26
61 °FClear.N/A83%29.71 "Hg10 mi
11:15 pm61 °FClear.N/A83%29.71 "Hg10 mi
10:45 pm61 °FClear.N/A83%29.71 "Hg10 mi
10:15 pm63 °FClear.N/A77%29.71 "Hg10 mi
9:45 pm63 °FClear.N/A77%29.71 "Hg10 mi
9:15 pm63 °FClear.N/A77%29.71 "Hg10 mi
8:45 pm66 °FClear.N/A68%29.71 "Hg10 mi
8:15 pm66 °FSunny.N/A68%29.71 "Hg10 mi
7:45 pm68 °FSunny.N/A64%29.71 "Hg10 mi
7:15 pm72 °FSunny.N/A53%29.71 "Hg10 mi
6:45 pm73 °FSunny.N/A47%29.68 "Hg10 mi
6:15 pm75 °FSunny.N/A44%29.68 "Hg10 mi
5:45 pm75 °FSunny.N/A47%29.68 "Hg10 mi
5:15 pm75 °FSunny.N/A44%29.68 "Hg10 mi
4:45 pm75 °FSunny.N/A41%29.71 "Hg10 mi
4:15 pm73 °FSunny.N/A47%29.71 "Hg10 mi
3:45 pm73 °FSunny.N/A50%29.71 "Hg10 mi
3:15 pm75 °FSunny.N/A47%29.71 "Hg10 mi
2:45 pm73 °FSunny.N/A50%29.71 "Hg10 mi
2:15 pm73 °FSunny.N/A47%29.71 "Hg10 mi
1:45 pm73 °FSunny.N/A47%29.71 "Hg10 mi
1:15 pm73 °FPartly sunny.N/A47%29.71 "HgN/A
12:45 pm72 °FPartly sunny.N/A47%29.71 "HgN/A
12:15 pm72 °FPartly sunny.N/A50%29.71 "HgN/A
11:45 am72 °FPartly sunny.N/A53%29.71 "HgN/A
11:15 am70 °FPartly sunny.N/A60%29.71 "HgN/A
10:45 am70 °FPartly sunny.N/A57%29.71 "HgN/A
10:15 am68 °FScattered clouds.N/A64%29.71 "HgN/A
Weather by CustomWeather, © 2017

See weather overviewHow to use our weather pages